INTELSAT 18 (IS-18)

Last updated on Jan. 23, 2021, 7:14 a.m. UTC

1 37834U 11056A   21022.88475399  .00000065  00000-0  00000-0 0  9999
2 37834   0.0206  57.4014 0001974 246.9181 316.6157  1.00273002 34144
UTC
Height (km)
Latitude
Longitude
Inclination
Orbital Period
UTC large
Height (km)
Speed (km/s)
/
Latitude / Longitude
Inclination (degrees)
Orbital Period (minutes)
Azimuth
Elevation
Range (km)
Doppler Factor
iOS Compass Heading
iOS Angle

Next 30 passes for location: Hong Kong

Rise time Rise Azimuth (degrees) Set time Set Azimuth (degrees) Duration Max altitude (degrees)

No matching passes for this satellites